STARLINK-11183 [DTC]

Last updated on Sat Aug 03 2024 00:02:04 GMT+0000 (Coordinated Universal Time)

1 60189U 24124G 24215.55991833 .00073895 00000+0 45238-3 0 9990 2 60189 53.1584 161.2576 0001598 52.3476 307.7689 15.76687501 4785

Satellite not in orbit

STARLINK-11183 [DTC]